Location: B?ogocice
(50.2413°N, 20.2361°E)
Time: 20:58:05
(UTC+00:00)

SAR-Lupe-4 - Pass Details

Date: 22 September 2024
Orbit: 476 x 483 km, 98.1° (Epoch: 03 October)

Event Time Altitude Azimuth Distance (km) Brightness Sun altitude
Rises 01:08:45 0° 33° (NNE) 2,551 8.3 -29.5°
Reaches altitude 10° 01:11:58 10° 65° (ENE) 1,662 7.1 -29.2°
Maximum altitude 01:13:27 12° 90° (E) 1,526 6.6 -29.0°
Enters shadow 01:14:21 11° 105° (ESE) 1,574 6.5 -28.9°
